Home > Weather > Aarau > Past weeks

Flag for Switzerland Past Weather in Aarau, Aargau, Switzerland — Yesterday and Last 2 Weeks

Now
73 °F

Mild.


Feels Like: 77 °F
Forecast: 54 / 78 °F
Wind: 3 mph from Southwest

Location: Wynau

Current Time: Jul 27, 2016 at 9:20:51 PM

Latest Report: Jul 27, 2016 at 8:00 PM


Visibility: N/A

Pressure: 30.03 "Hg

Humidity: 49%

Dew Point: 53 °F

Location of AarauLocation

Past Weather in Aarau — Graph

°F

Aarau Temperature Yesterday

Maximum temperature yesterday: 83 °F (at 3:00 PM)
Minimum temperature yesterday: 63 °F (at 6:00 AM)
Average temperature yesterday: 72 °F

High & Low Weather Summary for the Past Weeks

 TemperatureHumidityPressure
High90 °F (Jul 20, 5:00 PM)100% (Jul 15, 3:00 AM)30.37 "Hg (Jul 15, 3:00 AM)
Low46 °F (Jul 16, 6:00 AM)31% (Jul 19, 5:00 PM)29.88 "Hg (Jul 20, 6:00 PM)
Average66 °F77%30.10 "Hg
* Reported Jul 12 8:00 PM — Jul 27 8:00 PM, Aarau, Weather by CustomWeather, © 2016

Note: Actual official high and low records may vary slightly from our data, if they occured in-between our weather recording intervals... More about our weather records

Advertising

Aarau Weather History for the Previous 24 Hours

Scroll right to see more
 ConditionsComfort  
Time TempWeatherWind HumidityBarometerVisibility
8:00 PM
Wed, Jul 27
73 °FMild.3 mph49%30.03 "HgN/A
7:00 PM77 °FMild.6 mph42%29.98 "HgN/A
6:00 PM79 °FWarm.6 mph41%29.98 "HgN/A
5:00 PM79 °FWarm.7 mph45%29.98 "HgN/A
4:00 PM79 °FWarm.3 mph52%29.98 "HgN/A
3:00 PM76 °FMild.2 mph54%30.01 "HgN/A
2:00 PM77 °FWarm.1 mph58%30.01 "HgN/A
1:00 PM76 °FMild.3 mph57%30.02 "HgN/A
12:00 PM72 °FMild.2 mph64%30.06 "HgN/A
11:00 AM69 °FMild.No wind84%30.08 "HgN/A
10:00 AM67 °FMild.2 mph86%30.08 "HgN/A
9:00 AM67 °FMild.2 mph86%30.08 "HgN/A
8:00 AM65 °FMild.1 mph92%30.08 "HgN/A
7:00 AM63 °FMild.1 mph92%30.08 "HgN/A
6:00 AM62 °FCool.1 mph98%30.08 "HgN/A
5:00 AM62 °FCool.2 mph97%30.07 "HgN/A
4:00 AM64 °FMild.1 mph93%30.07 "HgN/A
3:00 AM65 °FMild.1 mph90%30.07 "HgN/A
2:00 AM65 °FMild.3 mph91%30.09 "HgN/A
1:00 AM68 °FMild.3 mph81%30.09 "HgN/A
12:00 AM69 °FMild.2 mph79%30.09 "HgN/A
11:00 PM
Tue, Jul 26
69 °FMild.1 mph79%30.08 "HgN/A
10:00 PM73 °FMild.1 mph67%30.06 "HgN/A
9:00 PM71 °FMild.2 mph73%30.05 "HgN/A
Weather by CustomWeather, © 2016

See weather overviewHow to use our weather pages